Voltar ao catálogo

STARLINK-30161

AtivoComunicaçõesVLEO
NORAD 57476·PAYLOAD·🇺🇸 United States

Lançado Jul 28, 2023 de Cape Canaveral Space Force Station

Loading…

Próximas Passagens (próximas 24 horas)

TLE

AtualizadoSource: CelesTrak SupGP

Época: Sep 15, 2026, 02:39 UTC

1 57476C 23107V   26258.11090278  .00034324  00000+0  12438-2 0  2586
2 57476  43.0014 346.0592 0001795 248.9514 341.4473 15.27545462    15

Acompanhe STARLINK-30161 em tempo real com AllMySat

Download on the App Store